Regional Weather Roundup
Issued by NWS

Home | Current Version | Previous Version | Graphics & Text | Print | Product List | Glossary On
Versions: 1 2 3 4 5 6 7 8 9 10 11 12 13 14 15 16 17 18 19 20 21 22 23 24 25 26 27 28 29 30 31 32 33 34 35 36 37 38 39 40 41 42 43 44 45 46 47 48 49 50
000
ASUS43 KMPX 201601
RWRMN
WEATHER ROUNDUP FOR MINNESOTA
NATIONAL WEATHER SERVICE TWIN CITIES/CHANHASSEN MN
1000 AM CST FRI JAN 20 2017


NOTE: "FAIR" INDICATES FEW OR NO CLOUDS BELOW 12,000 FEET WITH NO
SIGNIFICANT WEATHER AND/OR OBSTRUCTIONS TO VISIBILITY. N/A MEANS
CURRENT SKY AND/OR WEATHER CONDITIONS ARE NOT AVAILABLE.

MNZ060>063-068>070-201700-
   Twin Cities Metro

CITY           SKY/WX    TMP DP  RH WIND       PRES   REMARKS
TWIN CITIES    CLOUDY    35  33  92 SE10      29.61F FOG     WCI  27
ST PAUL        CLOUDY    36  36 100 SE7       29.63S FOG
CRYSTAL        CLOUDY    36  33  89 SE8       29.59F FOG
BLAINE         CLOUDY    37  37 100 E7        29.60F FOG
LAKEVILLE      CLOUDY    32  32 100 E7        29.60S FOG     WCI  26
EDEN PRAIRIE   CLOUDY    36  34  92 E7        29.58F FOG
SOUTH ST PAUL  CLOUDY    36  36 100 SE3       29.61F FOG
LAKE ELMO      CLOUDY    36  36 100 E5        29.63S FOG
$$
MNZ001>005-007-008-013>017-022>024-027-028-201700-
   Northwest Minnesota

CITY           SKY/WX    TMP DP  RH WIND       PRES   REMARKS
BEMIDJI        CLOUDY    33  33 100 E12       29.56S FOG     WCI  24
HALLOCK        CLOUDY    36  34  93 SE8       29.52S FOG
ROSEAU         CLOUDY    36  30  80 SE8       29.56S HAZE
WARROAD        CLOUDY    36  30  80 SE8       29.58R FOG
THIEF RVR FALL CLOUDY    35  34  96 SE12      29.54S WCI  27
CROOKSTON      CLOUDY    36  34  93 SE10      29.53F FOG
FOSSTON        CLOUDY    34  34 100 E7        29.54S FOG     WCI  28
DETROIT LAKES  CLOUDY    34  34 100 SE8       29.53F FOG     WCI  27
MOORHEAD       CLOUDY    34  34 100 SE7       29.53S FOG     WCI  28
PARK RAPIDS    CLOUDY    34  32  92 SE9       29.55S FOG     WCI  27
MAHNOMEN       CLOUDY    34  33  94 SE7       29.53S WCI  28
$$
MNZ006-009>011-018-025>026-201700-
   North Central Minnesota

CITY           SKY/WX    TMP DP  RH WIND       PRES   REMARKS
BAUDETTE       CLOUDY    34  34 100 SE7       29.58S FOG     WCI  28
FLAG ISLAND    FOG       34  34 100 SE10      29.57S VSB 1/2 WCI  26
INTL FALLS     CLOUDY    34  33  96 SE7       29.62R FOG     WCI  28
WASKISH        CLOUDY    36  36 100 SE8       29.59S FOG
BIG FORK       CLOUDY    36  34  93 SE3       29.62S FOG
LONGVILLE      DRIZZLE   36  34  93 E3        29.58F
GRAND RAPIDS   LGT RAIN  34  34 100 E5        29.63F VSB 3/4 WCI  30
CRANE LAKE     CLOUDY    34  34 100 S3        29.67S
ORR            CLOUDY    34  30  86 CALM      29.62S FOG
COOK           CLOUDY    34  34 100 CALM      29.64F FOG
WALKER         RAIN      32  32  99 E5        29.57F WCI  28
$$
MNZ012-019>021-037-201700-
   Northeast Minnesota

CITY           SKY/WX    TMP DP  RH WIND       PRES   REMARKS
DULUTH         LGT RAIN  35  34  96 E9        29.64F FOG     WCI  28
ELY            PTSUNNY   27  27 100 CALM      29.66S FOG
HIBBING        CLOUDY    31  31 100 SE6       29.63S FOG     WCI  25
EVELETH        CLOUDY    32  32  99 NE3       29.65F FOG
DULUTH HARBOR  MIX PCPN  34  34 100 CALM      29.68S VSB<1/4
TWO HARBORS    CLOUDY    37  32  81 NE7       29.65F HAZE
SILVER BAY     CLOUDY    34  34 100 NE3       29.68R FOG
GRAND MARAIS     N/A     34  33  96 CALM      29.72S
G MARAIS ARPRT   N/A     30  28  93 CALM      29.68S FOG
$$
MNZ029>031-032-039>041-046>048-054>057-064-201700-
   West Central Minnesota

CITY           SKY/WX    TMP DP  RH WIND       PRES   REMARKS
FERGUS FALLS   FOG       34  34 100 SE7       29.56F VSB 1   WCI  28
WHEATON        FOG       41  41 100 SE9       29.53S VSB 1
MORRIS         FOG       34  34 100 E12       29.51F VSB 1/4 WCI  25
ALEXANDRIA     FOG       33  33 100 SE13      29.54S VSB 3/4 WCI  24
ELBOW LAKE     FOG       33  33 100 SE8       29.53S VSB 3/4 WCI  26
WADENA         FOG       34  34 100 E8        29.54F VSB 1/2 WCI  27
GLENWOOD       FOG       34  34 100 E8        29.55S VSB<1/4 WCI  27
APPLETON       CLOUDY    36  34  93 SE7       29.53S FOG
BENSON         CLOUDY    36  32  87 SE9         N/A
ORTONVILLE     CLOUDY    34  32  93 CALM      29.51S FOG
MADISON        CLOUDY    36  36 100 SE10      29.53R FOG
WILLMAR        FOG       34  34 100 SE9       29.56S VSB 1/2 WCI  26
$$
MNZ033>034-036-042>043-049>051-058-059-201700-
   Central Minnesota

CITY           SKY/WX    TMP DP  RH WIND       PRES   REMARKS
ST CLOUD       FOG       34  34 100 SE7       29.58S VSB 1   WCI  28
SAUK CENTRE    FOG       33  33 100 E7        29.55F VSB 1/2 WCI  26
PAYNESVILLE    FOG       33  34 100 E6        29.56F VSB 1/2 WCI  28
AITKIN         MIX PCPN  37  34  87 E5        29.59S
PINE RIVER     CLOUDY    34  34 100 E8        29.61F FOG     WCI  27
BRAINERD       CLOUDY    34  34 100 VRB5      29.58F FOG     WCI  30
STAPLES        CLOUDY    34  34 100 SE3       29.56F FOG
LONG PRAIRIE   CLOUDY    32  32 100 E6        29.56S FOG     WCI  26
LITTLE FALLS   CLOUDY    34  32  93 E7        29.58  FOG     WCI  28
LITCHFIELD     FOG       36  34  93 E8        29.57S VSB<1/4
BUFFALO        CLOUDY    35  33  95 E6        29.59F FOG     WCI  30
MAPLE LAKE     FOG       36  36 100 MISG      29.59S VSB 1/2
HUTCHINSON     FOG       35  35 100 E7        29.57F VSB 1/4 WCI  29
$$
MNZ037-044-045-052-053-201700-
   East Central Minnesota

CITY           SKY/WX    TMP DP  RH WIND       PRES   REMARKS
PRINCETON      CLOUDY    36  36 100 E7        29.60F FOG
MORA           RAIN      32  32 100 E6        29.63F WCI  26
CAMBRIDGE      CLOUDY    37  34  87 E6        29.59F FOG
RUSH CITY      CLOUDY    36  34  93 SE7       29.63S FOG
MOOSE LAKE     CLOUDY    36  34  93 SE5       29.61F FOG
HINCKLEY       LGT RAIN  36  36 100 E6        29.62F
CLOQUET        DRIZZLE   36  34  93 E6        29.63F
MCGREGOR       CLOUDY    36  34  93 SE6       29.62S
$$
MNZ071>073-080-081-089-090-097-098-201700-
   Southwest Minnesota

CITY           SKY/WX    TMP DP  RH WIND       PRES   REMARKS
MONTEVIDEO     CLOUDY    34  34 100 S7        29.55S FOG     WCI  28
GRANITE FALLS  CLOUDY    35  35  99 E9        29.55S FOG     WCI  28
CANBY          CLOUDY    36  35  99 CALM      29.54R FOG
MARSHALL       FOG       35  35 100 S7        29.55R VSB 1   WCI  29
REDWOOD FALLS  CLOUDY    34  33  96 SE10      29.55S FOG     WCI  26
OLIVIA         CLOUDY    34  34 100 SE7       29.54S FOG     WCI  28
PIPESTONE      FOG       36  36 100 SE7       29.51R VSB 1/4
WINDOM         FOG       36  36 100 S6        29.56R VSB 1/4
WORTHINGTON    MIX PCPN  34  34 100 S10       29.56R VSB 3/4 WCI  26
JACKSON        FOG       34  34 100 S6        29.57R VSB 1/4 WCI  29
TRACY          CLOUDY    37  37 100 S8        29.55R FOG
SLAYTON        CLOUDY    34  34 100 S12       29.54R FOG     WCI  25
$$
MNZ065>067-074>077-082>085-091>093-201700-
   South Central Minnesota

CITY           SKY/WX    TMP DP  RH WIND       PRES   REMARKS
MANKATO        CLOUDY    34  34 100 SE12      29.59R FOG     WCI  25
NEW ULM        CLOUDY    34  34 100 S7        29.57R FOG     WCI  28
ST JAMES       CLOUDY    34  34 100 SE10      29.58R FOG     WCI  26
FAIRMONT       FOG       34  34 100 SE9       29.58R VSB 1/2 WCI  27
GLENCOE        FOG       35  35 100 E7        29.57S VSB 1/4 WCI  29
FARIBAULT      FOG       36  34  93 SE7       29.60S VSB 1
OWATONNA       FOG       36  34  93 SE12      29.59S VSB 3/4
WASECA         FOG       34  34 100 SE10      29.61R VSB 1/2 WCI  26
ALBERT LEA     FOG       34  34 100 SE9       29.60R VSB 1/4 WCI  26
$$
MNZ078>079-086>088-094>096-201700-
   Southeast Minnesota

CITY           SKY/WX    TMP DP  RH WIND       PRES   REMARKS
ROCHESTER      FOG       33  33 100 SE9       29.62R VSB 1/4 WCI  25
RED WING       CLOUDY    36  34  93 SE6       29.62F FOG
STANTON        CLOUDY    36  34  91 E8        29.59F FOG
DODGE CENTER   FOG       34  34 100 CALM      29.60R VSB 1/2
WINONA         CLOUDY    34  34 100 CALM      29.65S FOG
AUSTIN         FOG       34  34 100 SE6       29.60R VSB 3/4 WCI  29
PRESTON        FOG       33  33  98 SE5       29.62S VSB 1/4 WCI  29
$$
ABBREVIATIONS USED IN REMARKS
   TC - TEMPERATURES IN CELSIUS
  WCI - WIND CHILL INDEX
   HX - HEAT INDEX
  VSB - VISIBILITY
$$




USA.gov is the U.S. government's official web portal to all federal, state and local government web resources and services.